RH
100 100 100 100 100 100 81 97 100 100 100 100 100 99 100 100 100 100 100 100 100 100 100 100 100 100 100 100 98 100 99 80 71 68 92 100 100 100 100 100 100 72 57
100 100 100 100 100 100 100 100 83 60 67 84 100 100 100 100 100 100 100 100 100 100 100 100 99 99 100 100 100 92 80 79 88 100 100 100 100 100 100 100 88 98 83
100 100 100 100 100 100 100 100 86 99 82 69 92 100 100 100 100 100 100 100 100 100 99 97 100 96 81 99 98 100 100 100 100 100 100 100 100 100 100 100 95 73 75
100 100 100 100 100 100 100 100 100 100 100 100 100 89 95 100 100 100 100 100 100 100 100 97 100 100 92 74 100 100 100 100 100 100 99 100 100 100 100 100 92 86 79
100 100 100 100 100 100 100 100 100 100 100 100 100 99 96 97 99 63 79 96 91 85 77 90 95 96 100 99 100 100 100 100 100 100 100 100 100 100 97 97 98 76 100
100 100 100 100 100 100 100 100 100 100 100 100 100 100 100 100 100 96 89 64 100 97 92 87 87 93 95 100 99 100 100 100 100 99 100 100 100 100 86 81 100 100 98
100 100 100 100 100 100 100 100 100 100 100 100 100 100 100 100 100 100 100 100 80 77 91 82 78 99 91 97 100 100 99 88 86 100 100 88 93 100 95 95 96 93 100
100 100 100 100 100 100 100 100 100 100 100 99 100 100 100 100 100 100 100 100 100 100 100 100 100 100 100 100 100 100 99 98 100 94 99 100 100 100 99 100 100 84 86
100 100 100 100 100 100 100 100 100 100 100 100 100 100 100 100 100 100 100 100 100 100 100 100 100 100 100 100 100 94 98 100 100 100 100 100 100 100 100 100 100 90 88
100 100 100 100 100 100 100 100 100 100 100 100 100 100 100 100 100 100 100 100 100 100 100 100 100 100 100 100 100 100 100 100 100 100 100 100 99 99 91 70 76 79 60
100 100 100 100 100 100 100 100 100 100 100 100 100 100 100 94 100 100 100 99 94 97 96 99 100 100 100 100 100 100 100 100 100 95 85 99 79 96 80 75 84 75 70
100 100 100 100 100 100 99 100 100 100 100 100 100 98 100 100 100 100 100 100 100 100 100 100 100 100 100 100 100 100 100 98 99 72 88 85 87 93 81 96 100 83 100
100 100 100 100 100 100 100 100 100 100 100 100 100 100 99 100 100 100 100 100 90 93 100 100 100 100 100 96 92 96 100 98 100 99 100 97 100 100 100 100 100 80 98
100 100 100 100 100 100 100 100 100 100 100 100 100 100 100 100 96 98 100 100 100 100 100 100 100 100 100 100 100 100 100 100 100 100 98 89 100 81 100 99 100 100 94
99 100 97 97 100 100 100 100 100 100 100 100 97 88 95 100 100 100 100 100 100 100 100 100 100 100 100 100 100 100 100 100 95 100 100 99 100 100 99 98 90 78 74
94 99 99 100 98 100 100 97 92 99 97 91 96 100 100 100 98 99 99 100 100 99 90 84 96 100 100 100 100 100 99 100 100 100 100 99 88 96 89 81 71 70 73
86 91 100 97 97 85 95 97 100 96 94 95 91 83 79 82 100 94 100 95 100 100 100 99 100 100 100 100 100 100 100 100 100 100 100 87 86 81 74 73 58 44 35
42 42 54 77 77 75 75 70 75 78 70 77 80 80 81 77 70 71 82 79 78 78 85 90 94 93 97 100 98 95 87 68 66 68 64 57 65 64 51 37 31 28 22
20 22 25 37 44 44 48 50 49 52 51 52 60 55 48 47 49 45 40 44 46 46 50 55 50 49 46 45 46 49 53 48 42 41 55 57 55 43 30 29 25 26 28
19 16 15 15 17 15 17 16 14 15 16 17 20 18 14 16 17 17 21 21 21 20 17 17 19 25 31 29 28 30 36 36 33 43 41 41 38 38 35 34 34 36 44
24 12 5 3 3 4 5 6 6 9 10 10 10 11 13 14 14 20 23 22 21 20 21 23 22 23 26 34 36 49 62 58 57 62 62 58 63 54 49 46 48 53 53
13 7 5 3 3 3 3 3 3 3 4 4 5 6 7 7 10 12 17 20 21 20 20 22 29 30 35 46 53 60 82 87 88 89 86 84 82 83 73 64 65 64 58
8 4 3 3 3 3 3 3 4 4 4 4 5 5 6 7 9 11 12 14 16 18 24 25 32 40 45 52 65 69 78 93 96 100 100 100 93 88 85 82 78 78 82
5 4 4 4 3 3 3 3 3 3 4 4 4 5 5 6 8 12 14 16 18 21 23 25 28 41 54 75 78 85 86 94 94 98 100 100 100 94 92 92 90 93 95
4 4 4 3 3 3 2 3 3 3 3 4 4 5 5 5 6 8 9 11 12 15 20 24 37 50 61 84 82 84 91 96 99 100 100 100 99 98 96 96 96 94 94
4 4 3 3 3 2 2 3 3 3 3 4 4 4 4 5 6 7 8 9 10 13 18 23 38 52 78 68 74 86 96 97 96 100 100 100 100 98 97 99 100 98 93
Wind_Speed
80 78 75 75 76 77 69 69 73 69 61 56 56 54 51 50 50 46 48 52 62 59 60 64 64 68 65 70 74 77 74 75 75 76 74 73 77 80 81 81 84 90 93
89 81 80 77 72 66 68 68 68 72 71 67 61 57 55 51 44 49 54 58 61 61 63 65 69 71 73 77 77 78 79 78 76 73 74 79 82 84 83 87 93 94 95
94 87 77 75 75 76 74 71 65 63 59 64 63 58 57 54 51 57 61 65 68 69 68 67 71 74 76 76 78 75 77 76 77 78 82 87 88 90 91 93 95 97 100
87 88 88 81 79 73 71 74 70 69 64 66 69 63 62 65 61 66 65 66 69 74 73 71 73 74 76 75 75 76 77 79 81 87 90 91 91 88 91 95 99 102 105
91 91 89 90 92 88 81 84 81 82 78 74 75 71 67 69 69 71 74 76 78 79 83 77 76 79 82 79 79 81 83 85 86 89 85 88 89 93 98 100 103 107 108
93 85 83 84 82 83 88 93 86 85 82 82 82 77 77 77 77 82 83 83 82 79 82 81 81 82 82 86 88 90 91 94 93 94 93 91 95 98 103 106 109 109 113
99 88 90 90 89 97 95 94 92 90 81 80 84 87 87 86 84 84 84 85 88 89 87 90 89 93 92 95 94 96 95 96 93 92 94 98 100 101 106 104 112 118 117
97 91 93 95 98 100 100 103 106 104 94 90 91 94 95 95 91 88 87 89 88 91 96 97 97 98 98 98 89 90 100 99 99 102 104 105 106 109 113 116 118 122 124
96 98 98 100 102 106 107 108 109 107 105 100 98 97 98 93 93 94 93 96 95 101 103 105 105 106 105 103 105 104 107 102 99 103 110 112 111 114 119 121 125 131 136
100 100 102 103 103 103 108 110 112 112 111 107 107 108 107 103 103 104 105 104 101 107 107 106 106 108 109 107 103 106 109 114 115 117 119 123 127 127 128 132 134 135 139
111 105 109 110 111 112 116 115 112 115 114 117 116 116 111 118 118 114 110 112 113 110 112 112 111 111 108 113 116 118 122 123 124 128 129 130 133 132 135 138 138 140 140
113 113 118 118 114 114 118 123 125 125 125 124 122 123 124 123 123 119 119 119 120 121 117 117 120 118 118 121 123 126 126 132 131 136 135 137 134 135 137 139 140 143 144
116 122 126 117 112 117 122 126 124 124 128 129 131 130 132 128 128 126 128 128 130 129 128 128 129 131 129 135 136 135 134 134 131 134 133 134 135 138 142 142 147 149 154
119 121 124 125 133 131 128 128 130 130 133 136 139 138 139 138 137 138 136 136 136 135 134 135 133 135 135 140 140 139 140 141 143 143 144 149 144 149 147 147 152 158 153
130 121 124 128 132 137 141 141 140 137 136 136 138 141 144 145 144 143 143 143 143 141 140 141 143 143 144 146 149 149 147 148 150 151 151 155 153 151 153 154 147 144 145
130 132 137 140 144 143 147 146 149 151 149 150 151 151 148 150 153 153 151 150 154 152 151 151 153 151 151 155 155 154 156 154 157 159 156 158 162 159 149 147 151 141 112
123 141 144 141 138 147 156 154 155 162 156 159 159 161 163 160 163 163 162 159 156 157 162 159 161 159 161 159 159 160 160 164 161 159 158 167 160 155 161 137 137 115 132
127 130 147 149 154 148 156 153 158 164 170 167 165 166 175 169 174 182 180 181 178 176 174 176 175 169 168 170 171 170 169 166 165 156 157 159 153 137 132 125 112 106 93
71 83 102 127 143 150 154 156 168 179 179 178 178 169 162 175 179 182 175 177 188 191 193 188 184 172 170 187 176 164 162 165 169 146 128 133 119 103 116 100 90 85 79
73 76 79 90 110 124 127 117 126 134 134 134 137 151 155 150 149 150 143 138 138 139 141 142 141 139 138 139 135 128 122 126 121 108 102 97 92 89 87 81 79 77 71
83 85 81 82 87 90 96 106 112 123 129 135 143 144 142 137 134 138 134 130 123 121 119 120 122 122 122 119 116 109 104 99 94 91 87 83 79 78 78 76 73 72 72
85 84 81 75 71 70 72 76 82 86 92 97 104 112 119 122 124 125 133 131 124 122 121 119 116 112 110 110 108 101 93 89 85 79 77 77 76 76 76 74 73 70 69
86 81 72 64 63 62 62 64 68 72 76 78 81 85 89 94 99 104 111 116 118 118 116 113 109 108 106 102 98 95 88 81 80 77 77 77 78 77 75 72 70 69 68
80 72 65 60 57 56 57 58 60 63 66 67 69 72 75 77 80 84 88 91 92 93 95 96 97 96 95 91 90 85 82 77 75 74 73 72 72 70 67 67 67 67 67
72 66 61 57 55 53 51 50 51 52 54 57 60 63 66 67 68 70 71 72 74 75 79 81 80 80 76 76 77 76 74 72 69 68 67 67 67 66 67 68 68 69 72
67 63 58 53 51 49 46 44 44 45 46 48 51 54 56 59 60 60 62 64 64 65 65 64 64 66 66 69 67 65 66 67 66 65 67 67 67 68 69 70 73 73 72
Wind_Direction
208 213 216 220 227 229 233 238 236 247 242 246 246 243 241 239 241 248 254 255 263 254 261 259 263 271 277 283 286 287 287 291 296 298 298 296 296 301 302 301 300 306 309
210 217 219 221 226 230 230 244 239 243 248 250 244 244 240 246 247 256 258 262 260 256 257 260 262 270 276 280 283 291 293 292 295 293 291 295 297 298 297 295 302 302 306
212 216 219 216 225 229 234 236 240 242 242 242 240 241 249 250 251 258 257 254 254 255 255 261 266 273 274 280 282 288 289 288 293 289 291 291 292 294 295 297 298 303 305
215 215 219 223 220 227 228 228 235 237 242 245 247 243 244 247 253 258 255 254 255 257 263 266 267 275 279 280 284 284 284 284 281 284 289 288 291 292 291 295 297 301 304
215 216 221 224 226 228 229 231 238 239 239 249 251 250 247 252 259 259 267 262 261 262 265 268 271 272 274 276 282 282 281 283 284 284 286 285 285 288 292 295 297 299 299
217 218 220 223 227 230 229 231 235 237 245 250 249 250 250 254 258 261 264 264 262 263 268 268 272 275 274 279 283 284 284 281 282 285 282 283 286 290 295 295 295 296 297
217 223 226 224 229 228 230 233 232 239 244 247 248 251 253 257 256 260 257 262 259 262 265 268 270 273 274 275 277 278 280 282 284 281 281 287 288 288 289 292 294 297 300
219 225 227 228 228 226 229 231 233 239 243 246 248 250 253 257 257 258 258 256 256 260 264 265 269 271 274 275 273 275 278 280 280 283 282 285 286 288 291 294 293 297 299
220 223 223 225 229 229 231 234 237 239 243 243 246 251 252 252 255 256 255 257 258 262 266 267 270 272 273 275 275 280 281 282 280 278 283 285 286 287 291 293 294 298 297
222 223 226 229 232 234 237 237 238 241 241 244 247 250 252 252 253 256 257 258 260 262 265 267 268 270 272 274 274 272 277 279 279 280 282 283 285 287 290 291 295 298 297
227 226 229 231 234 235 236 237 238 241 243 245 247 248 253 255 256 258 258 258 260 262 264 266 268 270 269 271 273 274 277 278 280 282 283 284 285 289 290 292 295 299 299
227 231 233 233 236 238 239 239 242 243 243 244 246 250 252 253 255 254 256 259 260 260 261 263 265 266 267 270 271 273 276 278 279 282 282 285 287 288 291 292 296 296 299
229 232 234 237 241 243 243 243 245 246 246 248 250 253 255 256 256 257 258 259 260 261 264 265 267 268 270 271 273 275 275 278 279 280 282 284 285 287 289 291 293 296 301
235 238 238 237 237 240 244 248 248 247 249 249 250 253 256 257 258 256 259 260 261 261 264 265 267 268 269 271 272 273 274 277 279 281 282 284 286 285 287 292 295 298 300
239 243 245 245 246 244 244 245 248 253 254 255 256 257 259 259 258 260 261 262 261 263 264 265 266 267 269 270 272 273 276 277 280 283 283 283 288 287 294 296 299 297 303
242 244 247 245 247 248 250 250 252 255 256 255 256 256 261 259 259 260 260 264 262 263 265 266 265 266 269 270 272 275 277 277 280 284 286 285 285 293 297 293 296 299 285
256 253 255 255 257 259 255 253 255 254 256 257 259 259 260 260 262 262 262 264 265 264 264 266 265 267 268 268 272 275 276 277 281 287 292 281 284 288 288 292 291 294 298
256 258 256 257 261 261 260 258 259 262 259 258 261 263 263 265 267 266 265 266 266 266 268 268 268 270 269 269 273 275 278 285 283 281 281 280 285 294 295 296 295 295 293
269 259 257 256 257 259 260 259 260 258 259 260 259 262 264 265 265 269 269 268 266 266 267 270 270 271 271 274 276 276 276 278 280 281 280 285 290 286 289 291 291 290 290
295 287 270 261 257 255 251 258 260 258 257 259 260 261 261 261 264 265 266 267 266 267 268 269 270 271 272 273 275 277 276 276 280 281 282 284 284 285 286 287 287 288 288
302 293 285 278 271 270 263 260 260 257 257 258 259 258 260 261 260 259 262 264 263 265 267 268 269 270 270 272 275 276 275 278 278 279 280 281 281 282 283 284 285 285 287
299 299 296 291 284 277 270 265 262 260 259 258 257 258 257 259 257 257 256 258 261 263 266 267 267 267 268 270 273 275 276 277 278 277 278 279 280 280 282 283 284 285 285
308 305 300 294 288 282 276 271 267 264 262 261 260 259 259 258 258 258 258 258 259 263 265 267 265 267 268 270 273 274 275 274 274 274 273 276 278 280 280 281 282 283 285
312 309 304 300 295 288 282 276 270 265 262 261 260 259 259 259 259 258 258 259 261 263 264 266 268 267 268 270 273 272 272 273 271 271 273 275 276 277 279 281 283 284 286
316 312 308 306 301 295 288 281 274 269 265 262 260 259 258 257 257 257 258 259 261 263 265 267 268 270 272 270 269 268 268 270 271 272 273 275 277 278 280 281 284 286 287
320 316 315 311 305 298 293 286 279 273 268 264 260 258 257 256 255 255 256 257 258 260 262 265 267 269 271 268 266 264 264 266 268 270 271 273 276 277 279 281 284 286 287